Zurück zum Katalog

SL-16 DEB

AktivPO
NORAD 25403·DEBRIS·🇷🇺 Russia

Gestartet Jul 10, 1998 von Baikonur Cosmodrome

Loading…

Nächste Überflüge (nächste 24 Stunden)

TLE

AktuellSource: Space-Track

Epoche: Sep 14, 2026, 14:26 UTC

1 25403U 98043K   26257.60204953  .00000077  00000-0  94476-4 0  9997
2 25403  98.6020 181.9604 0212247 121.5296   2.1832 13.78595984416695

Verfolge SL-16 DEB in Echtzeit mit AllMySat

Download on the App Store